Location: Ulm
(48.3980°N, 9.9777°E)
Time: 10:58:16
(UTC+01:00)

ISS - Pass Details

Date: 04 January 2018
Orbit: 402 x 407 km, 51.6° (Epoch: 18 January)

Event Time Altitude Azimuth Distance (km) Brightness Sun altitude
Exits shadow 06:53:39 22° 293° (WNW) 961 -2.6 -12.3°
Maximum altitude 06:55:29 45° 357° (N) 564 -3.3 -12.0°
Drops below altitude 10° 06:58:40 10° 72° (ENE) 1,472 -0.2 -11.5°
Sets 07:00:49 0° 79° (E) 2,334 1.1 -11.1°
